This is the latest recevied weather packets stored in our database for station/object AH6GR. If no packets are shown the sender has not sent any weather packets the latest 10 day(s).
| Time | Temp. | Humidity | Pressure | Rain* | Wind** | Luminosity | Snow |
|---|---|---|---|---|---|---|---|
| 1787374833 | 25° C | 85% | 1013.8 hPa | 0 mm | - | - | - |
| 1787373905 | 25° C | 86% | 1013.6 hPa | 0 mm | - | - | - |
| 1787373078 | 25° C | 86% | 1013.3 hPa | 0 mm | - | - | - |
| 1787372123 | 25.56° C | 86% | 1013 hPa | 0 mm | - | - | - |
| 1787371202 | 25.56° C | 85% | 1012.9 hPa | 0 mm | - | - | - |
| 1787370347 | 25.56° C | 84% | 1012.9 hPa | 0 mm | - | - | - |
| 1787369423 | 26.11° C | 83% | 1012.7 hPa | 0 mm | - | - | - |
| 1787368564 | 26.11° C | 82% | 1012.8 hPa | 0 mm | - | - | - |
| 1787367636 | 26.11° C | 81% | 1012.8 hPa | 0 mm | - | - | - |
| 1787366771 | 26.67° C | 80% | 1012.5 hPa | 0 mm | - | - | - |
| 1787365838 | 26.11° C | 80% | 1012.5 hPa | 0 mm | - | - | - |
| 1787364909 | 26.11° C | 81% | 1012.6 hPa | 0 mm | - | - | - |
| 1787364051 | 26.67° C | 80% | 1012.6 hPa | 0 mm | - | - | - |
| 1787363123 | 26.67° C | 82% | 1012.5 hPa | 0 mm | - | - | - |
| 1787362265 | 26.67° C | 84% | 1012.6 hPa | 0 mm | - | - | - |
| 1787361344 | 26.11° C | 86% | 1012.6 hPa | 0 mm | - | - | - |
| 1787360407 | 26.11° C | 85% | 1012.8 hPa | 0 mm | - | - | - |
| 1787359551 | 26.67° C | 84% | 1012.8 hPa | 0 mm | - | - | - |
| 1787358628 | 27.22° C | 82% | 1012.9 hPa | 0 mm | - | - | - |
| 1787357772 | 27.78° C | 81% | 1013 hPa | 0 mm | - | - | - |
| 1787356836 | 27.78° C | 81% | 1013 hPa | 0 mm | - | - | - |
* Rain latest hour (hover to see other rain measurements)
** Current wind speed in m/s (hover to see current wind gust speed)